TimeCST,TemperatureF,Dew PointF,Humidity,Sea Level PressureIn,VisibilityMPH,Wind Direction,Wind SpeedMPH,Gust SpeedMPH,PrecipitationIn,Events,Conditions,WindDirDegrees,DateUTC
12:15 AM,56.8,41.0,55,30.19,10.0,ESE,6.9,-,N/A,,Clear,110,2013-03-07 06:15:00
12:35 AM,56.3,41.4,57,30.18,10.0,ESE,5.8,-,N/A,,Clear,110,2013-03-07 06:35:00
12:55 AM,55.8,41.9,60,30.18,10.0,ESE,4.6,-,N/A,,Clear,120,2013-03-07 06:55:00
1:15 AM,55.6,42.4,61,30.17,10.0,ESE,6.9,-,N/A,,Clear,110,2013-03-07 07:15:00
1:35 AM,55.2,42.8,63,30.17,10.0,East,4.6,-,N/A,,Clear,100,2013-03-07 07:35:00
1:55 AM,54.3,42.4,64,30.16,10.0,East,4.6,-,N/A,,Clear,100,2013-03-07 07:55:00
2:15 AM,53.2,42.1,66,30.16,10.0,ESE,3.5,-,N/A,,Clear,110,2013-03-07 08:15:00
2:35 AM,52.9,42.3,67,30.15,10.0,East,3.5,-,N/A,,Clear,100,2013-03-07 08:35:00
2:55 AM,52.5,42.4,69,30.13,10.0,ESE,3.5,-,N/A,,Clear,110,2013-03-07 08:55:00
3:15 AM,51.4,41.9,70,30.13,10.0,Calm,Calm,-,N/A,,Clear,0,2013-03-07 09:15:00
3:35 AM,50.7,41.9,72,30.12,10.0,Calm,Calm,-,N/A,,Clear,0,2013-03-07 09:35:00
3:55 AM,49.1,40.3,72,30.12,10.0,Calm,Calm,-,N/A,,Clear,0,2013-03-07 09:55:00
8:55 AM,60.1,48.2,65,30.16,10.0,ESE,4.6,-,N/A,,Mostly Cloudy,110,2013-03-07 14:55:00
9:15 AM,63.3,49.5,61,30.16,10.0,ESE,8.1,-,N/A,,Mostly Cloudy,120,2013-03-07 15:15:00
9:35 AM,63.3,50.0,62,30.17,10.0,ESE,5.8,-,N/A,,Mostly Cloudy,110,2013-03-07 15:35:00
9:55 AM,66.7,50.9,57,30.17,10.0,SE,9.2,-,N/A,,Mostly Cloudy,130,2013-03-07 15:55:00
10:55 AM,70.9,52.3,52,30.15,10.0,SE,17.3,20.7,N/A,,Overcast,130,2013-03-07 16:55:00
11:15 AM,71.4,51.8,50,30.14,10.0,SE,10.4,21.9,N/A,,Mostly Cloudy,130,2013-03-07 17:15:00
11:35 AM,73.6,51.4,46,30.13,10.0,SSE,13.8,20.7,N/A,,Mostly Cloudy,150,2013-03-07 17:35:00
11:55 AM,75.0,50.0,41,30.12,10.0,SSE,13.8,19.6,N/A,,Mostly Cloudy,150,2013-03-07 17:55:00
12:15 PM,75.4,48.9,39,30.11,10.0,SE,17.3,23.0,N/A,,Mostly Cloudy,140,2013-03-07 18:15:00
12:35 PM,76.8,48.2,36,30.10,10.0,SSE,12.7,24.2,N/A,,Mostly Cloudy,150,2013-03-07 18:35:00
12:55 PM,76.6,48.4,37,30.09,10.0,SE,12.7,24.2,N/A,,Scattered Clouds,140,2013-03-07 18:55:00
1:15 PM,79.9,48.4,33,30.08,10.0,South,15.0,20.7,N/A,,Mostly Cloudy,170,2013-03-07 19:15:00
1:35 PM,78.6,48.9,35,30.07,10.0,SSE,15.0,25.3,N/A,,Mostly Cloudy,160,2013-03-07 19:35:00
1:55 PM,79.7,49.1,34,30.05,10.0,ESE,18.4,25.3,N/A,,Scattered Clouds,120,2013-03-07 19:55:00
2:15 PM,78.8,49.3,35,30.04,10.0,SE,13.8,20.7,N/A,,Mostly Cloudy,140,2013-03-07 20:15:00
2:35 PM,81.1,47.8,31,30.03,10.0,SE,18.4,25.3,N/A,,Mostly Cloudy,130,2013-03-07 20:35:00
2:55 PM,80.4,48.4,32,30.02,10.0,SE,16.1,24.2,N/A,,Mostly Cloudy,130,2013-03-07 20:55:00
3:15 PM,80.8,48.9,33,30.02,10.0,SE,15.0,24.2,N/A,,Overcast,130,2013-03-07 21:15:00
3:35 PM,82.8,48.0,30,30.02,10.0,SE,15.0,21.9,N/A,,Mostly Cloudy,140,2013-03-07 21:35:00
3:55 PM,82.4,49.3,31,30.01,10.0,SE,18.4,25.3,N/A,,Mostly Cloudy,130,2013-03-07 21:55:00
4:15 PM,80.8,50.0,34,30.01,10.0,ESE,13.8,24.2,N/A,,Mostly Cloudy,120,2013-03-07 22:15:00
4:35 PM,80.2,51.3,36,30.01,10.0,ESE,18.4,23.0,N/A,,Overcast,120,2013-03-07 22:35:00
4:55 PM,79.7,52.5,39,30.01,10.0,ESE,16.1,21.9,N/A,,Overcast,120,2013-03-07 22:55:00
5:15 PM,79.3,52.5,39,30.01,10.0,SE,15.0,29.9,N/A,,Overcast,130,2013-03-07 23:15:00
5:35 PM,78.4,54.0,43,30.02,10.0,ESE,18.4,24.2,N/A,,Overcast,120,2013-03-07 23:35:00
5:55 PM,77.2,55.4,47,30.02,10.0,ESE,16.1,26.5,N/A,,Mostly Cloudy,120,2013-03-07 23:55:00
7:35 PM,73.9,57.2,56,30.04,10.0,SE,16.1,19.6,N/A,,Overcast,130,2013-03-08 01:35:00
7:55 PM,73.4,57.4,57,30.05,10.0,SE,16.1,21.9,N/A,,Overcast,130,2013-03-08 01:55:00
8:15 PM,72.7,57.7,59,30.06,10.0,SE,15.0,25.3,N/A,,Overcast,130,2013-03-08 02:15:00
8:35 PM,72.5,58.1,60,30.05,10.0,SE,17.3,26.5,N/A,,Overcast,130,2013-03-08 02:35:00
8:55 PM,71.6,58.3,63,30.07,10.0,SE,11.5,20.7,N/A,,Overcast,130,2013-03-08 02:55:00
9:35 PM,71.2,59.0,65,30.07,10.0,ESE,15.0,23.0,N/A,,Overcast,120,2013-03-08 03:35:00